Location: Kumla
(59.1265°N, 15.1401°E)
Time: 22:03:07
(UTC+01:00)

Vanguard 1 - Pass Details

Date: 07 December 2023
Orbit: 653 x 3825 km, 34.3° (Epoch: 04 March)

Event Time Altitude Azimuth Distance (km) Brightness Sun altitude
Rises 23:14:30 0° 269° (W) 7,307 14.6 -53.0°
Reaches altitude 10° 23:21:24 10° 255° (WSW) 6,647 14.2 -53.2°
Enters shadow 23:27:37 17° 239° (WSW) 6,268 13.9 -53.3°
